Location: Alexandria
(38.8050°N, 77.0470°W)
Time: 03:23:27
(UTC-05:00)

Hubble Space Telescope - Visible Passes

Search period start: 15 December 2017 00:00
Search period end: 25 December 2017 00:00
Orbit: 537 x 541 km, 28.5° (Epoch: 14 December)

Date Brightness Start Highest point End Pass type
(mag) Time Alt. Az. Time Alt. Az. Time Alt. Az.
15 Dec 3.4 18:35:41 10° SW 18:37:56 14° SSW 18:40:11 10° SSE visible
16 Dec 3.5 18:25:47 10° SW 18:27:35 13° SSW 18:29:23 10° S visible
17 Dec 3.7 18:16:15 10° SSW 18:17:13 11° SSW 18:18:10 10° S visible
